Tracking 18980 objects as of 23-Feb-2018
HD Live streaming from Space Station
objects crossing your sky now

FENGYUN 1C DEB

Track FENGYUN 1C DEB now!
10-day predictions


NORAD ID: 32431
Int'l Code: 1999-025DAT
Perigee: 792.8 km
Apogee: 896.7 km
Inclination: 99.5 °
Period: 101.7 minutes
Semi major axis: 7215 km
RCS: 0.0041 m2 (small)
Launch date: May 10, 1999
Source: People's Republic of China (PRC)
Launch site: Taiyaun Space Center, China (TSC)

Note: This is SATELLITE DEBRIS
aabbcc
Your satellite tracking list
Your tracking list is empty




NASA's NSSDC Master Catalog

Two Line Element Set (TLE):
1 32431U 99025DAT 18051.61746705 +.00001003 +00000-0 +51716-3 0  9996
2 32431 099.5472 345.6100 0071946 201.5235 284.3365 14.16386930213610
Source of the keplerian elements: AFSPC